Regional Weather Roundup
Issued by NWS State College, PA

Home | Current Version | Previous Version | Text Only | Print | Product List | Glossary Off
Versions: 1 2 3 4 5 6 7 8 9 10 11 12 13 14 15 16 17 18 19 20 21 22 23 24 25 26 27 28 29 30 31 32 33 34 35 36 37 38 39 40 41 42 43 44 45 46 47 48 49 50

000
ASUS41 KCTP 180703
RWRCTP
REGIONAL WEATHER ROUNDUP
NATIONAL WEATHER SERVICE STATE COLLEGE PA
200 AM EST THU JAN 18 2018

Note: "fair" indicates few or no clouds below 12,000 feet with no
significant weather and/or obstructions to visibility.

* = STATION THAT DOES NOT REPORT PRECIPITATION /E.G. RAIN...SNOW...ETC/
    THUNDER OR FOG.

PAZ002>004-007>009-013>016-020>023-029>032-180800-
WESTERN PENNSYLVANIA

CITY           SKY/WX    TMP DP  RH WIND       PRES   REMARKS
ERIE           FAIR      14   4  64 S17       30.15F WCI  -3
MEADVILLE      FAIR       5   3  91 S12       30.15F WCI -11
FRANKLIN*      FLURRIES   5   2  87 SW12      30.16F WCI -11
NEW CASTLE     FAIR       6   4  91 SW5       30.24F WCI  -3
BEAVER COUNTY  NOT AVBL
BUTLER*        FAIR       6   3  87 SW9       30.25F WCI  -8
PITTSBURGH INT FAIR       8   4  83 SW8       30.26F WCI  -4
PITTSBURGH     FAIR       5   0  79 S10       30.27F WCI -10
INDIANA*       CLOUDY     7   5  92 W13       30.28S WCI  -9
LATROBE        FAIR       7   5  92 S14       30.30F WCI -10
WASHINGTON CO* FAIR       6   3  87 SW10      30.33F WCI  -9
$$

PAZ004>006-010>012-017>019-024>028-033>037-041-042-045-046-049>053-180800-
CENTRAL PENNSYLVANIA

CITY           SKY/WX    TMP DP  RH WIND       PRES   REMARKS
BRADFORD       MOCLDY     6   3  87 SW10      30.06F WCI  -9
DUBOIS         CLOUDY     5   1  83 SW13      30.14F FOG     WCI -12
CLEARFIELD     CLOUDY     8   3  80 SW12      30.17F WCI  -7
JOHNSTOWN      LGT SNOW   6   3  87 W14       30.13F FOG     WCI -11
ALTOONA        FAIR      11   2  67 SW5       30.16F WCI   3
STATE COLLEGE  FAIR      11   4  72 W13       30.16F WCI  -4
WILLIAMSPORT   FAIR      14   7  73 W12       30.18F WCI   0
SELINSGROVE    FAIR       3  -3  76 CALM      30.21F
FT INDIANTOWN  FAIR      12   6  76 SW5       30.19F WCI   4
CAPITAL CITY   FAIR      13   5  70 W8        30.21F WCI   2
HARRISBURG     FAIR      13   6  74 NW12      30.21F WCI  -1
YORK           FAIR       9   4  80 W3        30.20F
$$

PAZ038>040-043-044-047-048-054-055-060>062-067>071-180800-
EASTERN PENNSYLVANIA

CITY           SKY/WX    TMP DP  RH WIND       PRES   REMARKS
SCRANTON       FAIR       9   6  88 SW6       30.12S WCI  -1
MOUNT POCONO   FAIR       6   4  91 W12       30.00F WCI  -9
ALLENTOWN      FAIR      10   3  73 SW7       30.16F WCI  -1
QUAKERTOWN*    FAIR      14   7  73 CALM      30.16F
READING        FAIR     N/A N/A N/A CALM      30.19F
LANCASTER      FAIR      11   6  81 W6        30.20F WCI   1
COATESVILLE    FAIR      14   7  73 NW8       30.17F WCI   3
POTTSTOWN      FAIR      13   5  70 NW7       30.19F WCI   3
BLUE BELL      FAIR      16   9  73 W6        30.19F WCI   7
DOYLESTOWN     FAIR      14   6  70 NW6       30.15F WCI   5
WILLOW GROVE   NOT AVBL
NORTH PHILA    FAIR      20   8  60 NW9       30.19F WCI   9
PHILADELPHIA   FAIR      19   7  59 NW10      30.20F WCI   7
$$



USA.gov is the U.S. government's official web portal to all federal, state and local government web resources and services.